Time,TemperatureF,DewpointF,PressureIn,WindDirection,WindDirectionDegrees,WindSpeedMPH,WindSpeedGustMPH,Humidity,HourlyPrecipIn,Conditions,Clouds,dailyrainin,SolarRadiationWatts/m^2,SoftwareType,DateUTC
2013-03-12 00:00:00,28.2,23.4,30.15,ESE,104,0.0,3.0,82,0.00,RA,,0.00,0.0,WeatherDisplay:10.37,2013-03-12 00:00:00,
2013-03-12 00:05:00,28.1,23.3,30.15,ESE,104,0.0,0.0,82,0.00,RA,,0.00,0.0,WeatherDisplay:10.37,2013-03-12 00:05:00,
2013-03-12 00:10:00,27.9,23.1,30.15,ESE,104,0.0,0.0,82,0.00,CLR,,0.00,0.0,WeatherDisplay:10.37,2013-03-12 00:10:00,
2013-03-12 00:15:00,27.6,22.8,30.15,ESE,104,0.0,0.0,82,0.00,CLR,,0.00,0.0,WeatherDisplay:10.37,2013-03-12 00:15:00,
2013-03-12 00:20:00,27.5,22.7,30.15,ESE,104,0.0,0.0,82,0.00,CLR,,0.00,0.0,WeatherDisplay:10.37,2013-03-12 00:20:00,
2013-03-12 00:26:00,27.3,22.5,30.15,ESE,103,0.0,0.0,82,0.00,CLR,,0.00,0.0,WeatherDisplay:10.37,2013-03-12 00:26:00,
2013-03-12 00:31:00,27.2,22.7,30.15,ESE,106,0.0,0.0,83,0.00,CLR,,0.00,0.0,WeatherDisplay:10.37,2013-03-12 00:31:00,
2013-03-12 00:36:00,27.0,22.5,30.15,ESE,104,0.0,0.0,83,0.00,CLR,,0.00,0.0,WeatherDisplay:10.37,2013-03-12 00:36:00,
2013-03-12 00:42:00,26.9,22.4,30.15,ESE,106,1.2,0.0,83,0.00,CLR,,0.00,0.0,WeatherDisplay:10.37,2013-03-12 00:42:00,
2013-03-12 00:47:00,26.7,22.2,30.15,ESE,106,0.0,0.0,83,0.00,CLR,,0.00,0.0,WeatherDisplay:10.37,2013-03-12 00:47:00,
2013-03-12 00:52:00,26.7,22.2,30.14,ESE,106,0.0,0.0,83,0.00,CLR,,0.00,0.0,WeatherDisplay:10.37,2013-03-12 00:52:00,
2013-03-12 00:57:00,26.6,22.1,30.14,ESE,106,0.0,0.0,83,0.00,CLR,,0.00,0.0,WeatherDisplay:10.37,2013-03-12 00:57:00,
2013-03-12 01:02:00,26.6,22.4,30.14,ESE,106,0.0,0.0,84,0.00,CLR,,0.00,0.0,WeatherDisplay:10.37,2013-03-12 01:02:00,
2013-03-12 01:07:00,26.4,22.2,30.14,ESE,106,1.2,0.0,84,0.00,CLR,,0.00,0.0,WeatherDisplay:10.37,2013-03-12 01:07:00,
2013-03-12 01:13:00,26.7,22.5,30.14,ESE,103,2.3,2.3,84,0.00,CLR,,0.00,0.0,WeatherDisplay:10.37,2013-03-12 01:13:00,
2013-03-12 01:18:00,26.9,22.7,30.14,ESE,104,2.3,2.3,84,0.00,CLR,,0.00,0.0,WeatherDisplay:10.37,2013-03-12 01:18:00,
2013-03-12 01:23:00,27.0,22.8,30.14,ESE,106,0.0,0.0,84,0.00,CLR,,0.00,0.0,WeatherDisplay:10.37,2013-03-12 01:23:00,
2013-03-12 01:28:00,27.2,23.0,30.14,ESE,106,0.0,0.0,84,0.00,CLR,,0.00,0.0,WeatherDisplay:10.37,2013-03-12 01:28:00,
2013-03-12 01:33:00,27.2,23.0,30.14,ESE,107,2.0,2.0,84,0.00,CLR,,0.00,0.0,WeatherDisplay:10.37,2013-03-12 01:33:00,
2013-03-12 01:38:00,27.3,23.1,30.13,NW,312,2.3,2.3,84,0.00,CLR,,0.00,0.0,WeatherDisplay:10.37,2013-03-12 01:38:00,
2013-03-12 01:44:00,27.9,23.7,30.13,SW,233,2.3,2.3,84,0.00,CLR,,0.00,0.0,WeatherDisplay:10.37,2013-03-12 01:44:00,
2013-03-12 01:49:00,28.2,23.7,30.13,WSW,243,1.2,0.0,83,0.00,CLR,,0.00,0.0,WeatherDisplay:10.37,2013-03-12 01:49:00,
2013-03-12 01:54:00,28.2,23.7,30.13,WNW,282,1.2,0.0,83,0.00,CLR,,0.00,0.0,WeatherDisplay:10.37,2013-03-12 01:54:00,
2013-03-12 01:59:00,28.2,23.4,30.13,West,281,0.0,0.0,82,0.00,CLR,,0.00,0.0,WeatherDisplay:10.37,2013-03-12 01:59:00,
2013-03-12 02:04:00,28.1,23.3,30.13,West,281,0.0,0.0,82,0.00,CLR,,0.00,0.0,WeatherDisplay:10.37,2013-03-12 02:04:00,
2013-03-12 02:10:00,27.8,23.0,30.12,West,278,2.3,2.3,82,0.00,CLR,,0.00,0.0,WeatherDisplay:10.37,2013-03-12 02:10:00,
2013-03-12 02:15:00,27.6,23.1,30.12,West,276,0.0,2.0,83,0.00,CLR,,0.00,0.0,WeatherDisplay:10.37,2013-03-12 02:15:00,
2013-03-12 02:20:00,27.5,23.0,30.12,North,354,1.0,0.0,83,0.00,CLR,,0.00,0.0,WeatherDisplay:10.37,2013-03-12 02:20:00,
2013-03-12 02:25:00,27.5,23.0,30.12,North,354,2.3,2.3,83,0.00,CLR,,0.00,0.0,WeatherDisplay:10.37,2013-03-12 02:25:00,
2013-03-12 02:30:00,27.3,22.8,30.12,North,0,0.0,0.0,83,0.00,CLR,,0.00,0.0,WeatherDisplay:10.37,2013-03-12 02:30:00,
2013-03-12 02:35:00,27.3,22.8,30.12,North,0,0.0,0.0,83,0.00,CLR,,0.00,0.0,WeatherDisplay:10.37,2013-03-12 02:35:00,
2013-03-12 02:40:00,27.2,22.7,30.12,North,356,1.2,1.2,83,0.00,CLR,,0.00,0.0,WeatherDisplay:10.37,2013-03-12 02:40:00,
2013-03-12 02:45:00,27.2,22.7,30.11,North,0,0.0,0.0,83,0.00,CLR,,0.00,0.0,WeatherDisplay:10.37,2013-03-12 02:45:00,
2013-03-12 02:51:00,27.2,23.0,30.11,North,359,0.0,0.0,84,0.00,CLR,,0.00,0.0,WeatherDisplay:10.37,2013-03-12 02:51:00,
2013-03-12 02:56:00,27.2,23.0,30.11,North,359,0.0,0.0,84,0.00,CLR,,0.00,0.0,WeatherDisplay:10.37,2013-03-12 02:56:00,
2013-03-12 03:01:00,27.2,23.0,30.11,North,0,1.2,0.0,84,0.00,CLR,,0.00,0.0,WeatherDisplay:10.37,2013-03-12 03:01:00,
2013-03-12 03:06:00,27.2,23.0,30.11,West,275,0.0,0.2,84,0.00,CLR,,0.00,0.0,WeatherDisplay:10.37,2013-03-12 03:06:00,
2013-03-12 03:11:00,27.2,23.0,30.11,West,278,0.0,0.0,84,0.00,CLR,,0.00,0.0,WeatherDisplay:10.37,2013-03-12 03:11:00,
2013-03-12 03:16:00,27.2,23.0,30.11,West,280,2.3,2.3,84,0.00,CLR,,0.00,0.0,WeatherDisplay:10.37,2013-03-12 03:16:00,
2013-03-12 03:21:00,27.2,23.0,30.10,WNW,288,0.0,0.1,84,0.00,CLR,,0.00,0.0,WeatherDisplay:10.37,2013-03-12 03:21:00,
2013-03-12 03:26:00,27.2,23.0,30.10,WSW,244,0.0,0.0,84,0.00,CLR,,0.00,0.0,WeatherDisplay:10.37,2013-03-12 03:26:00,
2013-03-12 03:32:00,27.2,23.0,30.10,West,275,1.2,1.2,84,0.00,CLR,,0.00,0.0,WeatherDisplay:10.37,2013-03-12 03:32:00,
2013-03-12 03:37:00,27.2,23.0,30.10,WSW,253,0.0,0.0,84,0.00,CLR,,0.00,0.0,WeatherDisplay:10.37,2013-03-12 03:37:00,
2013-03-12 03:42:00,27.3,23.1,30.10,WSW,241,1.2,0.0,84,0.00,CLR,,0.00,0.0,WeatherDisplay:10.37,2013-03-12 03:42:00,
2013-03-12 03:47:00,27.3,23.1,30.09,WSW,241,0.0,0.0,84,0.00,CLR,,0.00,0.0,WeatherDisplay:10.37,2013-03-12 03:47:00,
2013-03-12 03:53:00,27.3,23.1,30.09,WSW,241,0.0,0.0,84,0.00,CLR,,0.00,0.0,WeatherDisplay:10.37,2013-03-12 03:53:00,
2013-03-12 03:58:00,27.3,23.4,30.09,WSW,241,1.2,1.2,85,0.00,CLR,,0.00,0.0,WeatherDisplay:10.37,2013-03-12 03:58:00,
2013-03-12 04:00:00,27.3,23.4,30.09,WNW,289,3.5,0.0,85,0.00,CLR,,0.00,0.0,WeatherDisplay:10.37,2013-03-12 04:00:00,
2013-03-12 04:05:00,27.5,23.6,30.09,WNW,292,1.2,1.2,85,0.00,CLR,,0.00,0.0,WeatherDisplay:10.37,2013-03-12 04:05:00,
2013-03-12 04:10:00,27.5,23.6,30.09,WNW,289,3.5,3.5,85,0.00,CLR,,0.00,0.0,WeatherDisplay:10.37,2013-03-12 04:10:00,
2013-03-12 04:15:00,27.6,23.7,30.09,WNW,284,2.3,0.0,85,0.00,CLR,,0.00,0.0,WeatherDisplay:10.37,2013-03-12 04:15:00,
2013-03-12 04:20:00,27.8,23.9,30.09,WNW,288,0.0,0.0,85,0.00,CLR,,0.00,0.0,WeatherDisplay:10.37,2013-03-12 04:20:00,
2013-03-12 04:25:00,27.8,23.9,30.09,WNW,287,1.2,1.2,85,0.00,CLR,,0.00,0.0,WeatherDisplay:10.37,2013-03-12 04:25:00,
2013-03-12 04:30:00,27.8,23.9,30.09,WNW,289,1.2,1.2,85,0.00,CLR,,0.00,0.0,WeatherDisplay:10.37,2013-03-12 04:30:00,
2013-03-12 04:35:00,27.8,23.9,30.09,WNW,288,0.0,0.0,85,0.00,CLR,,0.00,0.0,WeatherDisplay:10.37,2013-03-12 04:35:00,
2013-03-12 04:40:00,27.8,23.9,30.09,WNW,285,0.0,0.0,85,0.00,CLR,,0.00,0.0,WeatherDisplay:10.37,2013-03-12 04:40:00,
2013-03-12 04:45:00,27.9,24.0,30.09,WNW,287,1.2,1.2,85,0.00,CLR,,0.00,0.0,WeatherDisplay:10.37,2013-03-12 04:45:00,
2013-03-12 04:50:00,28.1,24.2,30.09,WNW,285,0.0,0.0,85,0.00,CLR,,0.00,0.0,WeatherDisplay:10.37,2013-03-12 04:50:00,
2013-03-12 04:55:00,28.1,24.5,30.09,WNW,285,0.0,0.0,86,0.00,CLR,,0.00,0.0,WeatherDisplay:10.37,2013-03-12 04:55:00,
2013-03-12 05:00:00,28.2,24.6,30.08,WNW,287,0.0,0.0,86,0.00,CLR,,0.00,0.0,WeatherDisplay:10.37,2013-03-12 05:00:00,
2013-03-12 05:05:00,28.4,24.7,30.08,West,278,2.3,0.0,86,0.00,CLR,,0.00,0.0,WeatherDisplay:10.37,2013-03-12 05:05:00,
2013-03-12 05:10:00,28.7,25.0,30.08,West,277,0.0,0.0,86,0.00,CLR,,0.00,0.0,WeatherDisplay:10.37,2013-03-12 05:10:00,
2013-03-12 05:15:00,28.8,25.1,30.08,West,280,0.0,0.0,86,0.00,CLR,,0.00,0.0,WeatherDisplay:10.37,2013-03-12 05:15:00,
2013-03-12 05:20:00,29.1,25.4,30.08,West,277,2.3,2.3,86,0.00,CLR,,0.00,0.0,WeatherDisplay:10.37,2013-03-12 05:20:00,
2013-03-12 05:26:00,29.4,25.7,30.08,West,277,0.0,0.0,86,0.00,CLR,,0.00,0.0,WeatherDisplay:10.37,2013-03-12 05:26:00,
2013-03-12 05:31:00,29.5,25.8,30.08,West,274,0.0,0.0,86,0.00,CLR,,0.00,0.0,WeatherDisplay:10.37,2013-03-12 05:31:00,
2013-03-12 05:36:00,29.7,26.0,30.08,West,278,1.2,1.2,86,0.00,CLR,,0.00,0.0,WeatherDisplay:10.37,2013-03-12 05:36:00,
2013-03-12 05:41:00,29.8,26.1,30.08,West,275,0.0,0.0,86,0.00,CLR,,0.00,0.0,WeatherDisplay:10.37,2013-03-12 05:41:00,
2013-03-12 05:47:00,30.0,26.3,30.08,West,267,0.0,0.0,86,0.00,CLR,,0.00,0.0,WeatherDisplay:10.37,2013-03-12 05:47:00,
2013-03-12 05:52:00,30.1,26.1,30.07,West,271,0.0,0.0,85,0.00,CLR,,0.00,0.0,WeatherDisplay:10.37,2013-03-12 05:52:00,
2013-03-12 05:57:00,30.1,26.1,30.07,West,278,2.0,2.0,85,0.00,CLR,,0.00,0.0,WeatherDisplay:10.37,2013-03-12 05:57:00,
2013-03-12 06:02:00,30.1,26.1,30.07,West,267,0.0,0.0,85,0.00,CLR,,0.00,0.0,WeatherDisplay:10.37,2013-03-12 06:02:00,
2013-03-12 06:07:00,30.1,26.1,30.07,West,270,0.0,0.0,85,0.00,CLR,,0.00,0.0,WeatherDisplay:10.37,2013-03-12 06:07:00,
2013-03-12 06:12:00,30.0,26.0,30.06,West,278,0.0,0.0,85,0.00,OVC,,0.00,0.0,WeatherDisplay:10.37,2013-03-12 06:12:00,
2013-03-12 06:17:00,30.0,26.0,30.06,West,268,1.2,0.0,85,0.00,OVC,,0.00,0.0,WeatherDisplay:10.37,2013-03-12 06:17:00,
2013-03-12 06:23:00,29.8,25.8,30.06,West,275,2.3,2.3,85,0.00,OVC,,0.00,0.0,WeatherDisplay:10.37,2013-03-12 06:23:00,
2013-03-12 06:28:00,29.7,25.5,30.06,West,270,0.0,0.0,84,0.00,OVC,,0.00,0.0,WeatherDisplay:10.37,2013-03-12 06:28:00,
2013-03-12 06:33:00,29.5,25.3,30.06,West,267,0.0,0.0,84,0.00,OVC,,0.00,0.0,WeatherDisplay:10.37,2013-03-12 06:33:00,
2013-03-12 06:38:00,29.4,25.4,30.06,West,270,1.2,1.2,85,0.00,OVC,,0.00,5.0,WeatherDisplay:10.37,2013-03-12 06:38:00,
2013-03-12 06:43:00,29.3,25.4,30.06,West,270,0.0,0.0,85,0.00,OVC,,0.00,7.0,WeatherDisplay:10.37,2013-03-12 06:43:00,
2013-03-12 06:48:00,29.1,25.2,30.06,West,268,2.3,2.3,85,0.00,OVC,,0.00,9.0,WeatherDisplay:10.37,2013-03-12 06:48:00,
2013-03-12 06:53:00,29.0,25.1,30.06,West,270,2.3,2.3,85,0.00,CLR,,0.00,11.0,WeatherDisplay:10.37,2013-03-12 06:53:00,
2013-03-12 06:58:00,29.0,25.1,30.06,WSW,248,1.2,1.2,85,0.00,CLR,,0.00,12.0,WeatherDisplay:10.37,2013-03-12 06:58:00,
2013-03-12 07:03:00,28.8,24.9,30.06,WSW,248,0.0,0.0,85,0.00,SCT,,0.00,14.0,WeatherDisplay:10.37,2013-03-12 07:03:00,
2013-03-12 07:08:00,28.7,24.8,30.06,WSW,248,0.0,0.0,85,0.00,SCT,,0.00,16.0,WeatherDisplay:10.37,2013-03-12 07:08:00,
2013-03-12 07:13:00,28.5,24.6,30.06,WSW,248,0.0,0.0,85,0.00,FEW,,0.00,28.0,WeatherDisplay:10.37,2013-03-12 07:13:00,
2013-03-12 07:19:00,28.4,24.5,30.06,WSW,248,0.0,0.0,85,0.00,CLR,,0.00,42.0,WeatherDisplay:10.37,2013-03-12 07:19:00,
2013-03-12 07:24:00,28.2,24.6,30.06,WSW,248,0.0,0.0,86,0.00,CLR,,0.00,58.0,WeatherDisplay:10.37,2013-03-12 07:24:00,
2013-03-12 07:29:00,28.2,24.6,30.06,WSW,248,0.0,0.0,86,0.00,CLR,,0.00,70.0,WeatherDisplay:10.37,2013-03-12 07:29:00,
2013-03-12 07:34:00,28.2,24.6,30.06,West,271,2.3,2.3,86,0.00,CLR,,0.00,83.0,WeatherDisplay:10.37,2013-03-12 07:34:00,
2013-03-12 07:40:00,28.4,24.7,30.06,SW,230,0.0,0.0,86,0.00,CLR,,0.00,95.0,WeatherDisplay:10.37,2013-03-12 07:40:00,
2013-03-12 07:45:00,28.5,25.1,30.06,SW,230,0.0,2.0,87,0.00,CLR,,0.00,106.0,WeatherDisplay:10.37,2013-03-12 07:45:00,
2013-03-12 07:50:00,28.7,25.3,30.06,SW,233,1.2,0.0,87,0.00,CLR,,0.00,118.0,WeatherDisplay:10.37,2013-03-12 07:50:00,
2013-03-12 07:55:00,29.0,25.6,30.06,SW,232,1.2,0.0,87,0.00,CLR,,0.00,132.0,WeatherDisplay:10.37,2013-03-12 07:55:00,
2013-03-12 08:00:00,29.3,25.6,30.06,SW,232,0.0,0.0,86,0.00,CLR,,0.00,143.0,WeatherDisplay:10.37,2013-03-12 08:00:00,
2013-03-12 08:05:00,29.4,26.0,30.06,SW,232,0.0,0.0,87,0.00,CLR,,0.00,155.0,WeatherDisplay:10.37,2013-03-12 08:05:00,
2013-03-12 08:11:00,30.0,26.6,30.06,SW,234,0.0,0.6,87,0.00,CLR,,0.00,167.0,WeatherDisplay:10.37,2013-03-12 08:11:00,
2013-03-12 08:16:00,30.4,26.7,30.06,SW,234,2.3,0.0,86,0.00,CLR,,0.00,179.0,WeatherDisplay:10.37,2013-03-12 08:16:00,
2013-03-12 08:22:00,30.9,27.2,30.05,SW,234,0.0,0.0,86,0.00,CLR,,0.00,190.0,WeatherDisplay:10.37,2013-03-12 08:22:00,
2013-03-12 08:27:00,31.3,27.6,30.05,SW,234,2.3,2.3,86,0.00,CLR,,0.00,204.0,WeatherDisplay:10.37,2013-03-12 08:27:00,
2013-03-12 08:32:00,31.8,28.1,30.05,WNW,299,3.5,3.5,86,0.00,CLR,,0.00,213.0,WeatherDisplay:10.37,2013-03-12 08:32:00,
2013-03-12 08:37:00,32.7,29.0,30.05,NNW,329,3.5,3.5,86,0.00,CLR,,0.00,227.0,WeatherDisplay:10.37,2013-03-12 08:37:00,
2013-03-12 08:42:00,33.2,29.2,30.05,NNW,346,4.6,4.6,85,0.00,CLR,,0.00,239.0,WeatherDisplay:10.37,2013-03-12 08:42:00,
2013-03-12 08:47:00,34.1,30.1,30.04,North,350,4.6,4.6,85,0.00,CLR,,0.00,252.0,WeatherDisplay:10.37,2013-03-12 08:47:00,
2013-03-12 08:53:00,35.3,30.7,30.04,NW,323,5.8,5.8,83,0.00,CLR,,0.00,264.0,WeatherDisplay:10.37,2013-03-12 08:53:00,
2013-03-12 08:58:00,36.2,30.6,30.04,NW,316,9.2,9.2,80,0.00,CLR,,0.00,274.0,WeatherDisplay:10.37,2013-03-12 08:58:00,
2013-03-12 09:03:00,36.8,31.2,30.04,NNW,340,4.6,4.6,80,0.00,CLR,,0.00,287.0,WeatherDisplay:10.37,2013-03-12 09:03:00,
2013-03-12 09:08:00,37.3,31.4,30.04,North,349,6.0,6.0,79,0.00,CLR,,0.00,299.0,WeatherDisplay:10.37,2013-03-12 09:08:00,
2013-03-12 09:14:00,37.8,31.6,30.04,NNW,347,6.9,6.9,78,0.00,CLR,,0.00,311.0,WeatherDisplay:10.37,2013-03-12 09:14:00,
2013-03-12 09:19:00,38.3,31.7,30.04,North,354,3.5,3.5,77,0.00,CLR,,0.00,324.0,WeatherDisplay:10.37,2013-03-12 09:19:00,
2013-03-12 09:24:00,38.9,32.0,30.04,NW,326,5.0,5.0,76,0.00,CLR,,0.00,338.0,WeatherDisplay:10.37,2013-03-12 09:24:00,
2013-03-12 09:29:00,39.6,32.7,30.04,NNW,344,5.0,5.0,76,0.00,CLR,,0.00,352.0,WeatherDisplay:10.37,2013-03-12 09:29:00,
2013-03-12 09:34:00,39.9,32.6,30.04,NNW,347,3.5,3.5,75,0.00,CLR,,0.00,364.0,WeatherDisplay:10.37,2013-03-12 09:34:00,
2013-03-12 09:39:00,40.2,32.2,30.03,East,79,6.9,6.9,73,0.00,CLR,,0.00,368.0,WeatherDisplay:10.37,2013-03-12 09:39:00,
2013-03-12 09:45:00,40.3,32.0,30.03,NNW,339,8.1,8.1,72,0.00,CLR,,0.00,385.0,WeatherDisplay:10.37,2013-03-12 09:45:00,
2013-03-12 09:50:00,40.6,32.6,30.03,NNW,339,3.5,3.5,73,0.00,OVC,,0.00,121.0,WeatherDisplay:10.37,2013-03-12 09:50:00,
2013-03-12 09:55:00,40.3,32.0,30.03,NW,319,10.4,10.4,72,0.00,CLR,,0.00,345.0,WeatherDisplay:10.37,2013-03-12 09:55:00,
2013-03-12 10:00:00,40.6,32.6,30.03,NNW,330,6.9,6.9,73,0.00,CLR,,0.00,435.0,WeatherDisplay:10.37,2013-03-12 10:00:00,
2013-03-12 10:05:00,40.8,32.8,30.03,NW,319,8.0,8.0,73,0.00,CLR,,0.00,413.0,WeatherDisplay:10.37,2013-03-12 10:05:00,
2013-03-12 10:11:00,40.9,33.2,30.03,North,356,6.9,6.9,74,0.00,CLR,,0.00,421.0,WeatherDisplay:10.37,2013-03-12 10:11:00,
2013-03-12 10:16:00,41.3,32.6,30.03,NW,304,8.1,8.1,71,0.00,CLR,,0.00,428.0,WeatherDisplay:10.37,2013-03-12 10:16:00,
2013-03-12 10:22:00,41.5,32.8,30.02,North,354,6.9,6.9,71,0.00,CLR,,0.00,440.0,WeatherDisplay:10.37,2013-03-12 10:22:00,
2013-03-12 10:27:00,41.5,32.4,30.02,NNW,329,6.9,6.9,70,0.00,CLR,,0.00,447.0,WeatherDisplay:10.37,2013-03-12 10:27:00,
2013-03-12 10:32:00,41.6,32.9,30.02,North,359,5.8,5.8,71,0.00,CLR,,0.00,456.0,WeatherDisplay:10.37,2013-03-12 10:32:00,
2013-03-12 10:37:00,41.9,33.2,30.02,NNW,330,5.8,5.8,71,0.00,CLR,,0.00,535.0,WeatherDisplay:10.37,2013-03-12 10:37:00,
2013-03-12 10:42:00,42.2,32.4,30.02,NNW,346,6.9,6.9,68,0.00,CLR,,0.00,542.0,WeatherDisplay:10.37,2013-03-12 10:42:00,
2013-03-12 10:47:00,42.2,32.8,30.02,North,356,5.8,5.8,69,0.00,CLR,,0.00,554.0,WeatherDisplay:10.37,2013-03-12 10:47:00,
2013-03-12 10:52:00,42.3,32.5,30.02,NNW,342,3.5,3.5,68,0.00,CLR,,0.00,563.0,WeatherDisplay:10.37,2013-03-12 10:52:00,
2013-03-12 10:58:00,42.9,32.7,30.02,NNW,342,3.5,3.5,67,0.00,CLR,,0.00,549.0,WeatherDisplay:10.37,2013-03-12 10:58:00,
2013-03-12 11:03:00,42.8,32.6,30.02,NNW,346,5.8,5.8,67,0.00,CLR,,0.00,612.0,WeatherDisplay:10.37,2013-03-12 11:03:00,
2013-03-12 11:08:00,43.2,33.3,30.01,North,356,4.6,4.6,68,0.00,CLR,,0.00,561.0,WeatherDisplay:10.37,2013-03-12 11:08:00,
2013-03-12 11:13:00,43.2,33.0,30.01,NNW,339,5.8,5.8,67,0.00,CLR,,0.00,602.0,WeatherDisplay:10.37,2013-03-12 11:13:00,
2013-03-12 11:18:00,43.1,33.6,30.01,NNW,336,4.6,4.6,69,0.00,CLR,,0.00,509.0,WeatherDisplay:10.37,2013-03-12 11:18:00,
2013-03-12 11:24:00,43.2,33.7,30.01,ENE,75,4.6,4.6,69,0.00,SCT,,0.00,296.0,WeatherDisplay:10.37,2013-03-12 11:24:00,
2013-03-12 11:29:00,42.8,33.7,30.01,NW,309,8.1,8.1,70,0.00,FEW,,0.00,343.0,WeatherDisplay:10.37,2013-03-12 11:29:00,
2013-03-12 11:34:00,42.5,33.4,30.01,NNW,340,5.8,5.8,70,0.00,FEW,,0.00,347.0,WeatherDisplay:10.37,2013-03-12 11:34:00,
2013-03-12 11:39:00,42.6,33.5,30.01,NNW,346,4.6,4.6,70,0.00,FEW,,0.00,354.0,WeatherDisplay:10.37,2013-03-12 11:39:00,
2013-03-12 11:44:00,43.2,33.7,30.01,NNW,329,3.5,3.5,69,0.00,CLR,,0.00,577.0,WeatherDisplay:10.37,2013-03-12 11:44:00,
2013-03-12 11:49:00,43.5,33.6,30.00,NNW,339,6.9,6.9,68,0.00,CLR,,0.00,577.0,WeatherDisplay:10.37,2013-03-12 11:49:00,
2013-03-12 11:54:00,43.6,34.1,30.00,NNW,346,6.9,6.9,69,0.00,CLR,,0.00,589.0,WeatherDisplay:10.37,2013-03-12 11:54:00,
2013-03-12 11:59:00,44.3,34.4,30.00,NNW,337,7.0,7.0,68,0.00,CLR,,0.00,748.0,WeatherDisplay:10.37,2013-03-12 11:59:00,
2013-03-12 12:05:00,44.5,34.6,30.00,NNW,340,7.0,7.0,68,0.00,FEW,,0.00,426.0,WeatherDisplay:10.37,2013-03-12 12:05:00,
2013-03-12 12:10:00,44.6,34.7,30.00,NW,325,10.4,10.4,68,0.00,CLR,,0.00,823.0,WeatherDisplay:10.37,2013-03-12 12:10:00,
2013-03-12 12:15:00,44.6,35.1,30.00,North,357,5.8,5.8,69,0.00,CLR,,0.00,589.0,WeatherDisplay:10.37,2013-03-12 12:15:00,
2013-03-12 12:20:00,44.5,34.6,30.00,North,354,6.9,6.9,68,0.00,FEW,,0.00,362.0,WeatherDisplay:10.37,2013-03-12 12:20:00,
2013-03-12 12:26:00,44.3,35.5,30.00,NNW,333,3.5,3.5,71,0.00,FEW,,0.00,436.0,WeatherDisplay:10.37,2013-03-12 12:26:00,
2013-03-12 12:31:00,44.6,35.1,29.99,North,357,10.4,10.4,69,0.00,CLR,,0.00,644.0,WeatherDisplay:10.37,2013-03-12 12:31:00,
2013-03-12 12:36:00,45.1,35.2,29.99,NW,325,4.6,4.6,68,0.00,CLR,,0.00,581.0,WeatherDisplay:10.37,2013-03-12 12:36:00,
2013-03-12 12:41:00,45.2,34.9,29.99,NW,311,6.9,6.9,67,0.00,CLR,,0.00,535.0,WeatherDisplay:10.37,2013-03-12 12:41:00,
2013-03-12 12:46:00,44.9,35.0,29.99,NW,323,7.0,7.0,68,0.00,CLR,,0.00,626.0,WeatherDisplay:10.37,2013-03-12 12:46:00,
2013-03-12 12:51:00,44.9,34.6,29.99,NNW,328,11.5,11.5,67,0.00,CLR,,0.00,447.0,WeatherDisplay:10.37,2013-03-12 12:51:00,
2013-03-12 12:57:00,44.8,35.2,29.99,NW,326,10.4,10.4,69,0.00,FEW,,0.00,428.0,WeatherDisplay:10.37,2013-03-12 12:57:00,
2013-03-12 13:02:00,44.6,34.3,29.98,North,352,10.4,10.4,67,0.00,FEW,,0.00,394.0,WeatherDisplay:10.37,2013-03-12 13:02:00,
2013-03-12 13:07:00,44.5,34.6,29.98,North,354,7.0,7.0,68,0.00,SCT,,0.00,304.0,WeatherDisplay:10.37,2013-03-12 13:07:00,
2013-03-12 13:12:00,43.9,34.0,29.98,North,359,8.1,8.1,68,0.00,BKN,,0.00,211.0,WeatherDisplay:10.37,2013-03-12 13:12:00,
2013-03-12 13:17:00,43.8,34.3,29.98,NW,320,6.0,6.0,69,0.00,SCT,,0.00,243.0,WeatherDisplay:10.37,2013-03-12 13:17:00,
2013-03-12 13:22:00,43.9,34.4,29.98,NW,311,8.1,8.1,69,0.00,SCT,,0.00,285.0,WeatherDisplay:10.37,2013-03-12 13:22:00,
2013-03-12 13:27:00,43.6,34.5,29.98,NNW,328,5.0,5.0,70,0.00,BKN,,0.00,229.0,WeatherDisplay:10.37,2013-03-12 13:27:00,
2013-03-12 13:33:00,43.9,34.4,29.98,NW,313,4.6,4.6,69,0.00,CLR,,0.00,503.0,WeatherDisplay:10.37,2013-03-12 13:33:00,
2013-03-12 13:38:00,44.9,35.3,29.98,North,357,5.8,5.8,69,0.00,CLR,,0.00,519.0,WeatherDisplay:10.37,2013-03-12 13:38:00,
2013-03-12 13:43:00,44.6,34.7,29.97,NNW,347,6.9,6.9,68,0.00,BKN,,0.00,172.0,WeatherDisplay:10.37,2013-03-12 13:43:00,
2013-03-12 13:48:00,44.5,35.3,29.97,North,356,2.3,2.3,70,0.00,BKN,,0.00,194.0,WeatherDisplay:10.37,2013-03-12 13:48:00,
2013-03-12 13:53:00,44.2,35.0,29.97,ENE,71,13.0,13.0,70,0.00,BKN,,0.00,183.0,WeatherDisplay:10.37,2013-03-12 13:53:00,
2013-03-12 13:58:00,43.9,34.0,29.97,NNW,344,11.5,11.5,68,0.00,BKN,,0.00,220.0,WeatherDisplay:10.37,2013-03-12 13:58:00,
2013-03-12 14:03:00,44.5,35.7,29.97,NNW,346,11.5,11.5,71,0.00,CLR,,0.00,266.0,WeatherDisplay:10.37,2013-03-12 14:03:00,
2013-03-12 14:09:00,44.9,35.7,29.97,NNW,328,13.8,13.8,70,0.00,BKN,,0.00,208.0,WeatherDisplay:10.37,2013-03-12 14:09:00,
2013-03-12 14:14:00,44.2,34.7,29.96,NNW,340,6.9,6.9,69,0.00,BKN,,0.00,199.0,WeatherDisplay:10.37,2013-03-12 14:14:00,
2013-03-12 14:19:00,44.1,34.9,29.96,ESE,102,10.4,10.4,70,0.00,SCT,,0.00,253.0,WeatherDisplay:10.37,2013-03-12 14:19:00,
2013-03-12 14:24:00,44.3,35.5,29.96,NW,323,10.4,10.4,71,0.00,SCT,,0.00,274.0,WeatherDisplay:10.37,2013-03-12 14:24:00,
2013-03-12 14:30:00,44.6,35.8,29.96,WNW,296,6.9,6.9,71,0.00,CLR,,0.00,405.0,WeatherDisplay:10.37,2013-03-12 14:30:00,
2013-03-12 14:35:00,45.5,36.6,29.96,NW,325,11.5,11.5,71,0.00,SCT,,0.00,252.0,WeatherDisplay:10.37,2013-03-12 14:35:00,
2013-03-12 14:40:00,45.2,37.1,29.96,NNW,332,5.8,5.9,73,0.00,SCT,,0.00,255.0,WeatherDisplay:10.37,2013-03-12 14:40:00,
2013-03-12 14:46:00,45.2,37.1,29.95,North,356,5.8,5.8,73,0.00,SCT,,0.00,255.0,WeatherDisplay:10.37,2013-03-12 14:46:00,
2013-03-12 14:51:00,45.5,37.0,29.95,NW,320,9.2,9.2,72,0.00,CLR,,0.00,586.0,WeatherDisplay:10.37,2013-03-12 14:51:00,
2013-03-12 14:56:00,45.8,36.9,29.95,NNW,333,5.8,5.8,71,0.00,CLR,,0.00,540.0,WeatherDisplay:10.37,2013-03-12 14:56:00,
2013-03-12 15:01:00,46.0,37.1,29.95,NNW,340,6.9,6.9,71,0.00,CLR,,0.00,500.0,WeatherDisplay:10.37,2013-03-12 15:01:00,
2013-03-12 15:07:00,45.8,36.9,29.95,NW,325,5.8,5.8,71,0.00,CLR,,0.00,463.0,WeatherDisplay:10.37,2013-03-12 15:07:00,
2013-03-12 15:12:00,45.7,37.2,29.95,NW,325,6.9,6.9,72,0.00,FEW,,0.00,282.0,WeatherDisplay:10.37,2013-03-12 15:12:00,
2013-03-12 15:17:00,45.8,37.3,29.94,NNW,344,10.4,10.4,72,0.00,CLR,,0.00,273.0,WeatherDisplay:10.37,2013-03-12 15:17:00,
2013-03-12 15:22:00,45.7,37.2,29.94,NNW,332,10.4,10.4,72,0.00,CLR,,0.00,273.0,WeatherDisplay:10.37,2013-03-12 15:22:00,
2013-03-12 15:28:00,45.7,37.2,29.94,NW,323,10.4,10.4,72,0.00,CLR,,0.00,475.0,WeatherDisplay:10.37,2013-03-12 15:28:00,
2013-03-12 15:33:00,45.8,37.3,29.94,NW,319,10.4,10.4,72,0.00,CLR,,0.00,187.0,WeatherDisplay:10.37,2013-03-12 15:33:00,
2013-03-12 15:38:00,45.4,36.9,29.94,NNW,335,6.0,6.0,72,0.00,BKN,,0.00,135.0,WeatherDisplay:10.37,2013-03-12 15:38:00,
2013-03-12 15:43:00,45.1,37.3,29.94,NNW,328,3.5,3.5,74,0.00,OVC,,0.00,84.0,WeatherDisplay:10.37,2013-03-12 15:43:00,
2013-03-12 15:48:00,44.6,36.8,29.94,NNW,333,5.8,5.8,74,0.00,OVC,,0.00,72.0,WeatherDisplay:10.37,2013-03-12 15:48:00,
2013-03-12 15:53:00,44.3,36.5,29.93,NNW,328,10.4,10.4,74,0.00,BKN,,0.00,93.0,WeatherDisplay:10.37,2013-03-12 15:53:00,
2013-03-12 15:58:00,44.2,36.8,29.93,NW,316,9.2,9.2,75,0.00,BKN,,0.00,121.0,WeatherDisplay:10.37,2013-03-12 15:58:00,
2013-03-12 16:04:00,44.2,37.1,29.93,NNW,335,6.9,6.9,76,0.00,SCT,,0.00,146.0,WeatherDisplay:10.37,2013-03-12 16:04:00,
2013-03-12 16:09:00,44.3,37.2,29.93,WNW,295,8.1,8.1,76,0.00,BKN,,0.00,109.0,WeatherDisplay:10.37,2013-03-12 16:09:00,
2013-03-12 16:14:00,44.3,37.5,29.93,NW,322,6.9,6.9,77,0.00,BKN,,0.00,97.0,WeatherDisplay:10.37,2013-03-12 16:14:00,
2013-03-12 16:19:00,44.3,37.5,29.93,NW,313,6.9,6.9,77,0.00,BKN,,0.00,90.0,WeatherDisplay:10.37,2013-03-12 16:19:00,
2013-03-12 16:24:00,44.3,37.5,29.92,NW,306,6.9,6.9,77,0.00,SCT,,0.00,104.0,WeatherDisplay:10.37,2013-03-12 16:24:00,
2013-03-12 16:29:00,44.3,37.5,29.92,WNW,302,6.9,6.9,77,0.00,SCT,,0.00,93.0,WeatherDisplay:10.37,2013-03-12 16:29:00,
2013-03-12 16:35:00,44.3,37.5,29.92,NW,325,3.5,3.5,77,0.00,SCT,,0.00,88.0,WeatherDisplay:10.37,2013-03-12 16:35:00,
2013-03-12 16:40:00,44.3,37.5,29.92,NNW,332,3.5,3.5,77,0.00,SCT,,0.00,99.0,WeatherDisplay:10.37,2013-03-12 16:40:00,
2013-03-12 16:45:00,44.3,37.2,29.92,NW,312,5.8,5.8,76,0.00,CLR,,0.00,114.0,WeatherDisplay:10.37,2013-03-12 16:45:00,
2013-03-12 16:51:00,44.3,37.5,29.92,NW,318,10.4,10.4,77,0.00,SCT,,0.00,88.0,WeatherDisplay:10.37,2013-03-12 16:51:00,
2013-03-12 16:56:00,44.2,37.4,29.92,NNW,332,6.9,6.9,77,0.00,BKN,,0.00,58.0,WeatherDisplay:10.37,2013-03-12 16:56:00,
2013-03-12 17:01:00,44.1,37.7,29.92,NW,320,5.8,5.8,78,0.00,BKN,,0.00,56.0,WeatherDisplay:10.37,2013-03-12 17:01:00,
2013-03-12 17:06:00,43.8,37.7,29.92,WNW,296,4.6,4.6,79,0.00,BKN,,0.00,46.0,WeatherDisplay:10.37,2013-03-12 17:06:00,
2013-03-12 17:12:00,43.6,37.8,29.92,NW,326,4.6,4.6,80,0.00,BKN,,0.00,39.0,WeatherDisplay:10.37,2013-03-12 17:12:00,
2013-03-12 17:17:00,43.5,37.4,29.92,NW,313,2.3,2.3,79,0.00,BKN,,0.00,39.0,WeatherDisplay:10.37,2013-03-12 17:17:00,
2013-03-12 17:22:00,43.3,37.2,29.92,NW,325,3.5,3.5,79,0.00,SCT,,0.00,46.0,WeatherDisplay:10.37,2013-03-12 17:22:00,
2013-03-12 17:28:00,43.1,37.3,29.92,NW,309,2.3,0.0,80,0.00,CLR,,0.00,51.0,WeatherDisplay:10.37,2013-03-12 17:28:00,
2013-03-12 17:33:00,42.9,37.2,29.92,NW,316,4.0,4.0,80,0.00,SCT,,0.00,32.0,WeatherDisplay:10.37,2013-03-12 17:33:00,
2013-03-12 17:38:00,42.8,37.4,29.92,NW,326,3.5,3.5,81,0.00,SCT,,0.00,23.0,WeatherDisplay:10.37,2013-03-12 17:38:00,
2013-03-12 17:44:00,42.6,37.2,29.92,NW,326,3.5,3.5,81,0.00,SCT,,0.00,21.0,WeatherDisplay:10.37,2013-03-12 17:44:00,
2013-03-12 17:49:00,42.6,37.5,29.92,NW,326,5.0,5.0,82,0.00,FEW,,0.00,19.0,WeatherDisplay:10.37,2013-03-12 17:49:00,
2013-03-12 17:54:00,42.6,37.8,29.92,NW,326,3.5,3.5,83,0.00,CLR,,0.00,16.0,WeatherDisplay:10.37,2013-03-12 17:54:00,
2013-03-12 17:59:00,42.6,37.8,29.92,NNW,335,5.8,5.8,83,0.00,CLR,,0.00,9.0,WeatherDisplay:10.37,2013-03-12 17:59:00,
2013-03-12 18:04:00,42.6,37.8,29.92,NW,308,3.5,3.5,83,0.00,OVC,,0.00,7.0,WeatherDisplay:10.37,2013-03-12 18:04:00,
2013-03-12 18:09:00,42.6,38.1,29.92,NW,306,6.0,6.0,84,0.00,OVC,,0.00,7.0,WeatherDisplay:10.37,2013-03-12 18:09:00,
2013-03-12 18:14:00,42.5,38.0,29.92,NW,323,5.8,5.8,84,0.00,OVC,,0.00,7.0,WeatherDisplay:10.37,2013-03-12 18:14:00,
2013-03-12 18:20:00,42.3,37.8,29.92,WNW,301,3.5,3.5,84,0.00,OVC,,0.00,5.0,WeatherDisplay:10.37,2013-03-12 18:20:00,
2013-03-12 18:25:00,42.2,38.0,29.92,NW,316,5.8,5.8,85,0.00,OVC,,0.00,0.0,WeatherDisplay:10.37,2013-03-12 18:25:00,
2013-03-12 18:30:00,42.1,37.9,29.92,NW,313,3.5,3.5,85,0.00,OVC,,0.00,0.0,WeatherDisplay:10.37,2013-03-12 18:30:00,
2013-03-12 18:35:00,41.8,37.6,29.92,NW,315,3.5,3.5,85,0.00,OVC,,0.00,0.0,WeatherDisplay:10.37,2013-03-12 18:35:00,
2013-03-12 18:41:00,41.6,37.7,29.92,NW,315,3.5,3.5,86,0.00,OVC,,0.00,0.0,WeatherDisplay:10.37,2013-03-12 18:41:00,
2013-03-12 18:46:00,41.5,37.6,29.92,NW,315,2.3,2.3,86,0.00,CLR,,0.00,0.0,WeatherDisplay:10.37,2013-03-12 18:46:00,
2013-03-12 18:52:00,41.3,37.4,29.92,NW,323,4.6,4.6,86,0.00,CLR,,0.00,0.0,WeatherDisplay:10.37,2013-03-12 18:52:00,
2013-03-12 18:57:00,41.3,37.4,29.92,NW,323,3.5,3.5,86,0.00,CLR,,0.00,0.0,WeatherDisplay:10.37,2013-03-12 18:57:00,
2013-03-12 19:02:00,41.2,37.3,29.92,NW,323,0.0,0.0,86,0.00,CLR,,0.00,0.0,WeatherDisplay:10.37,2013-03-12 19:02:00,
2013-03-12 19:07:00,41.2,37.3,29.92,NW,323,2.3,2.3,86,0.00,CLR,,0.00,0.0,WeatherDisplay:10.37,2013-03-12 19:07:00,
2013-03-12 19:12:00,41.2,37.6,29.92,NW,323,1.2,1.2,87,0.00,CLR,,0.00,0.0,WeatherDisplay:10.37,2013-03-12 19:12:00,
2013-03-12 19:18:00,41.1,37.5,29.92,NW,325,2.0,2.0,87,0.00,CLR,,0.00,0.0,WeatherDisplay:10.37,2013-03-12 19:18:00,
2013-03-12 19:23:00,41.1,37.5,29.92,NW,325,0.0,0.0,87,0.00,CLR,,0.00,0.0,WeatherDisplay:10.37,2013-03-12 19:23:00,
2013-03-12 19:28:00,41.1,37.5,29.92,NW,325,0.0,0.0,87,0.00,CLR,,0.00,0.0,WeatherDisplay:10.37,2013-03-12 19:28:00,
2013-03-12 19:33:00,40.9,37.3,29.92,NW,323,0.0,0.0,87,0.00,CLR,,0.00,0.0,WeatherDisplay:10.37,2013-03-12 19:33:00,
2013-03-12 19:38:00,40.8,37.2,29.92,NNW,340,1.2,1.2,87,0.00,CLR,,0.00,0.0,WeatherDisplay:10.37,2013-03-12 19:38:00,
2013-03-12 19:44:00,40.6,36.7,29.92,NNW,340,0.0,0.0,86,0.00,CLR,,0.00,0.0,WeatherDisplay:10.37,2013-03-12 19:44:00,
2013-03-12 19:49:00,40.3,36.4,29.92,NNW,340,0.0,0.0,86,0.00,CLR,,0.00,0.0,WeatherDisplay:10.37,2013-03-12 19:49:00,
2013-03-12 19:54:00,40.2,36.3,29.92,NNW,336,1.0,1.0,86,0.00,CLR,,0.00,0.0,WeatherDisplay:10.37,2013-03-12 19:54:00,
2013-03-12 19:59:00,40.2,36.3,29.92,ESE,112,0.0,0.0,86,0.00,CLR,,0.00,0.0,WeatherDisplay:10.37,2013-03-12 19:59:00,
2013-03-12 20:04:00,40.2,36.3,29.92,ESE,110,2.3,2.3,86,0.00,CLR,,0.00,0.0,WeatherDisplay:10.37,2013-03-12 20:04:00,
2013-03-12 20:09:00,40.1,36.0,29.92,ESE,112,0.0,0.0,85,0.00,CLR,,0.00,0.0,WeatherDisplay:10.37,2013-03-12 20:09:00,
2013-03-12 20:14:00,39.9,35.8,29.92,ESE,103,0.0,0.0,85,0.00,CLR,,0.00,0.0,WeatherDisplay:10.37,2013-03-12 20:14:00,
2013-03-12 20:20:00,39.8,35.7,29.92,ESE,109,0.0,0.0,85,0.00,CLR,,0.00,0.0,WeatherDisplay:10.37,2013-03-12 20:20:00,
2013-03-12 20:25:00,39.8,35.7,29.92,ESE,110,0.0,0.0,85,0.00,CLR,,0.00,0.0,WeatherDisplay:10.37,2013-03-12 20:25:00,
2013-03-12 20:30:00,39.6,35.5,29.92,ESE,111,0.0,0.0,85,0.00,CLR,,0.00,0.0,WeatherDisplay:10.37,2013-03-12 20:30:00,
2013-03-12 20:35:00,39.6,35.5,29.92,ESE,109,0.0,0.0,85,0.00,CLR,,0.00,0.0,WeatherDisplay:10.37,2013-03-12 20:35:00,
2013-03-12 20:40:00,39.5,35.4,29.92,ESE,113,0.0,0.0,85,0.00,CLR,,0.00,0.0,WeatherDisplay:10.37,2013-03-12 20:40:00,
2013-03-12 20:45:00,39.5,35.4,29.92,ESE,113,0.0,0.0,85,0.00,CLR,,0.00,0.0,WeatherDisplay:10.37,2013-03-12 20:45:00,
2013-03-12 20:50:00,39.2,35.1,29.92,ESE,109,2.3,2.3,85,0.00,CLR,,0.00,0.0,WeatherDisplay:10.37,2013-03-12 20:50:00,
2013-03-12 20:56:00,39.2,35.1,29.92,ESE,114,0.0,0.0,85,0.00,CLR,,0.00,0.0,WeatherDisplay:10.37,2013-03-12 20:56:00,
2013-03-12 21:01:00,39.1,35.0,29.92,ESE,114,0.0,0.0,85,0.00,CLR,,0.00,0.0,WeatherDisplay:10.37,2013-03-12 21:01:00,
2013-03-12 21:06:00,38.9,34.5,29.92,ESE,109,0.0,0.0,84,0.00,CLR,,0.00,0.0,WeatherDisplay:10.37,2013-03-12 21:06:00,
2013-03-12 21:11:00,38.8,34.7,29.92,ESE,113,0.0,0.0,85,0.00,CLR,,0.00,0.0,WeatherDisplay:10.37,2013-03-12 21:11:00,
2013-03-12 21:16:00,38.6,34.5,29.92,ESE,110,1.2,0.0,85,0.00,CLR,,0.00,0.0,WeatherDisplay:10.37,2013-03-12 21:16:00,
2013-03-12 21:21:00,38.5,34.4,29.92,ESE,109,0.0,0.0,85,0.00,CLR,,0.00,0.0,WeatherDisplay:10.37,2013-03-12 21:21:00,
2013-03-12 21:26:00,38.5,34.4,29.92,East,79,3.0,3.0,85,0.00,CLR,,0.00,0.0,WeatherDisplay:10.37,2013-03-12 21:26:00,
2013-03-12 21:32:00,38.3,34.2,29.92,North,359,3.5,3.5,85,0.00,CLR,,0.00,0.0,WeatherDisplay:10.37,2013-03-12 21:32:00,
2013-03-12 21:37:00,38.5,34.7,29.92,East,82,2.3,2.3,86,0.00,CLR,,0.00,0.0,WeatherDisplay:10.37,2013-03-12 21:37:00,
2013-03-12 21:42:00,38.3,34.2,29.92,East,83,0.0,0.0,85,0.00,CLR,,0.00,0.0,WeatherDisplay:10.37,2013-03-12 21:42:00,
2013-03-12 21:47:00,38.3,34.2,29.92,East,79,2.3,2.3,85,0.00,CLR,,0.00,0.0,WeatherDisplay:10.37,2013-03-12 21:47:00,
2013-03-12 21:52:00,38.2,34.1,29.92,ENE,76,0.0,0.0,85,0.00,CLR,,0.00,0.0,WeatherDisplay:10.37,2013-03-12 21:52:00,
2013-03-12 21:57:00,37.9,33.8,29.92,ENE,73,1.0,1.0,85,0.00,CLR,,0.00,0.0,WeatherDisplay:10.37,2013-03-12 21:57:00,
2013-03-12 22:02:00,37.8,33.7,29.92,ENE,78,0.0,0.4,85,0.00,CLR,,0.00,0.0,WeatherDisplay:10.37,2013-03-12 22:02:00,
2013-03-12 22:08:00,37.5,33.4,29.92,ENE,76,1.2,1.2,85,0.00,CLR,,0.00,0.0,WeatherDisplay:10.37,2013-03-12 22:08:00,
2013-03-12 22:13:00,37.3,33.5,29.92,ENE,73,3.5,3.5,86,0.00,CLR,,0.00,0.0,WeatherDisplay:10.37,2013-03-12 22:13:00,
2013-03-12 22:18:00,37.5,33.7,29.92,North,0,1.2,1.2,86,0.00,CLR,,0.00,0.0,WeatherDisplay:10.37,2013-03-12 22:18:00,
2013-03-12 22:23:00,37.5,33.7,29.92,North,359,2.3,2.3,86,0.00,CLR,,0.00,0.0,WeatherDisplay:10.37,2013-03-12 22:23:00,
2013-03-12 22:28:00,37.3,33.5,29.92,WNW,287,3.0,3.0,86,0.00,CLR,,0.00,0.0,WeatherDisplay:10.37,2013-03-12 22:28:00,
2013-03-12 22:34:00,37.2,33.4,29.92,WNW,294,0.0,0.0,86,0.00,CLR,,0.00,0.0,WeatherDisplay:10.37,2013-03-12 22:34:00,
2013-03-12 22:39:00,36.9,33.1,29.92,WNW,294,0.0,0.0,86,0.00,CLR,,0.00,0.0,WeatherDisplay:10.37,2013-03-12 22:39:00,
2013-03-12 22:44:00,36.8,33.0,29.92,WNW,294,0.0,0.0,86,0.00,CLR,,0.00,0.0,WeatherDisplay:10.37,2013-03-12 22:44:00,
2013-03-12 22:49:00,36.5,32.7,29.92,WNW,291,0.0,0.0,86,0.00,CLR,,0.00,0.0,WeatherDisplay:10.37,2013-03-12 22:49:00,
2013-03-12 22:54:00,36.3,32.5,29.92,WNW,294,0.0,0.0,86,0.00,CLR,,0.00,0.0,WeatherDisplay:10.37,2013-03-12 22:54:00,
2013-03-12 22:59:00,36.0,32.2,29.92,WNW,295,0.0,0.0,86,0.00,CLR,,0.00,0.0,WeatherDisplay:10.37,2013-03-12 22:59:00,
2013-03-12 23:05:00,35.9,32.4,29.92,WNW,295,0.0,0.0,87,0.00,CLR,,0.00,0.0,WeatherDisplay:10.37,2013-03-12 23:05:00,
2013-03-12 23:10:00,35.8,32.3,29.92,WNW,294,1.0,0.0,87,0.00,CLR,,0.00,0.0,WeatherDisplay:10.37,2013-03-12 23:10:00,
2013-03-12 23:15:00,35.8,32.9,29.92,WNW,291,3.5,3.5,89,0.00,CLR,,0.00,0.0,WeatherDisplay:10.37,2013-03-12 23:15:00,
2013-03-12 23:20:00,35.9,33.0,29.92,WNW,295,3.5,3.5,89,0.00,CLR,,0.00,0.0,WeatherDisplay:10.37,2013-03-12 23:20:00,
2013-03-12 23:25:00,36.0,33.1,29.92,NW,309,3.5,3.5,89,0.00,CLR,,0.00,0.0,WeatherDisplay:10.37,2013-03-12 23:25:00,
2013-03-12 23:30:00,36.0,33.4,29.92,NW,315,0.0,0.0,90,0.00,CLR,,0.00,0.0,WeatherDisplay:10.37,2013-03-12 23:30:00,
2013-03-12 23:35:00,36.0,33.4,29.91,NW,316,0.0,0.0,90,0.00,CLR,,0.00,0.0,WeatherDisplay:10.37,2013-03-12 23:35:00,
2013-03-12 23:41:00,36.0,33.6,29.92,NW,305,0.0,0.0,91,0.00,CLR,,0.00,0.0,WeatherDisplay:10.37,2013-03-12 23:41:00,
2013-03-12 23:46:00,36.0,33.6,29.91,NW,304,3.0,3.0,91,0.00,CLR,,0.00,0.0,WeatherDisplay:10.37,2013-03-12 23:46:00,
2013-03-12 23:51:00,36.0,33.9,29.91,WNW,301,2.3,2.3,92,0.00,CLR,,0.00,0.0,WeatherDisplay:10.37,2013-03-12 23:51:00,
2013-03-12 23:56:00,36.2,34.1,29.92,NW,313,3.5,3.5,92,0.00,CLR,,0.00,0.0,WeatherDisplay:10.37,2013-03-12 23:56:00,